Simultaneous Nadir Overpasses (SNOs) Predictions

Prediction of SNOs between FY3D and NOAA-19 Satellite Orbit:

Table of predicted SNOs for the next 14.0 days since TLE Epoch: 12/5/2020
Index Date (FY3D) Time (FY3D) Lat,Lon (FY3D) SZA (FY3D ) Date (NOAA-19) Time (NOAA-19) Lat,Lon (NOAA-19) SZA (NOAA-19 ) Distance(km) Time Diff (sec)
1 12/09/2020 13:10:00 -78.63, 136.05 77.58 12/09/2020 13:08:57 -78.62, 131.61 77.19 97.50 63
2 12/09/2020 14:00:53 78.94, -58.66 102.87 12/09/2020 13:59:44 78.96, -58.61 102.91 2.45 69
3 12/09/2020 14:51:38 -78.96, 108.53 77.10 12/09/2020 14:50:48 -78.94, 108.47 77.10 2.25 50
4 12/09/2020 15:42:23 78.98, -84.28 102.93 12/09/2020 15:41:45 78.94, -84.25 102.91 3.66 38
5 12/09/2020 16:33:07 -78.96, 83.16 77.10 12/09/2020 16:32:48 -78.96, 83.09 77.08 1.45 19
6 12/09/2020 17:23:52 78.98,-109.64 102.94 12/09/2020 17:23:45 78.96,-109.62 102.92 1.88 7
7 12/09/2020 18:14:36 -78.96, 57.79 77.09 12/09/2020 18:14:48 -78.97, 57.71 77.07 2.29 12
8 12/09/2020 19:05:21 78.97,-135.01 102.95 12/09/2020 19:05:45 78.97,-135.00 102.94 0.22 24
9 12/09/2020 19:56:06 -78.99, 32.18 77.03 12/09/2020 19:56:48 -78.99, 32.33 77.06 3.37 42
10 12/09/2020 20:46:50 78.97,-160.38 102.95 12/09/2020 20:47:45 78.99,-160.38 102.95 1.71 55
11 12/09/2020 21:37:35 -78.99, 6.81 77.02 12/09/2020 21:38:48 -79.00, 6.95 77.05 3.18 73



Historial Predications of SNOs between FY3D and NOAA-19
